www.pogodaiklimat.ru

Погода и климат >> Архив погоды >> Бельгия >> Бьерсет


ПОГОДА в Бьерсете

  • Прогноз погоды в Бьерсете
  • Монитор погоды в Бьерсете

АРХИВ ПОГОДЫ в Бьерсете

Время (UTC), дата Ветер
(напр.,м/с)
 
Видим.   Явления Облачность Т
(С)
Тd
(С)
f
(%)
Тe
(С)
Тes
(С)
Комфортность P
(гПа)
Po
(гПа)
Тmin
(С)
Tmax
(С)
R
(мм)
R24
(мм)
S
(см)
22 19.06 Ю 4
{7}
35 км слаб. ливневой дождь 9/5 1350 м
[Cb cap Ac trans Ci sp]
+16.6 +15.4 93 +16 +16 1009.6 988.5
23 19.06 ЮЗ 5
{7}
35 км в посл. час ливневой дождь 9/3 1500 м
[Sc Ac As]
+16.5 +14.9 90 +16 +16 1010.1 988.9
00 20.06 ЮЗ 5
{7}
15 км {гроза, ливн. осадки} 9/8 270 м
[St Ac trans]
+15.5 +14.5 94 +14 +14 1010.4 989.2 2
01 20.06 ЮЗ 5
{7}
6000 м 9/8 180 м
[St]
+15.5 +14.6 94 +14 +14 1010.5 989.2
02 20.06 ЮЗ 5
{7}
6000 м 9/9 180 м
[St]
+15.2 +14.2 94 +14 +14 1011.0 989.7
03 20.06 ЮЗ 4
{7}
8000 м 9/8 360 м
[Sc]
+14.8 +13.6 93 +14 +14 1011.3 990.0
04 20.06 ЮЗ 3
{6}
4000 м дымка 6/1 750 м
[Sc Ac trans Ci fib]
+14.3 +13.5 95 +13 +13 1011.6 990.3
05 20.06 ЮЗ 4
{6}
3800 м дымка 9/1 750 м
[Sc Ac trans]
+14.8 +13.6 93 +14 +14 1012.1 990.7
06 20.06 Ю 3
{7}
5000 м дымка 9/1 750 м
[Sc Ac trans]
+15.4 +13.5 88 +15 +16 1012.2 990.9 +14.2
07 20.06 ЮЗ 4
{6}
10 км 8/4 270 м
[Cu med, cong Ac trans Ci sp]
+16.6 +13.5 82 +16 +18 1012.2 991.0
08 20.06 ЮЗ 4
{6}
15 км 9/6 420 м
[Cu med, cong Ac trans Ci sp]
+16.8 +13.4 80 +16 +18 1012.5 991.3
09 20.06 ЮЗ 5
{7}
15 км 9/8 480 м
[Cu Sc Ac trans Ci sp]
+17.3 +13.1 76 +17 +18 1012.7 991.5
10 20.06 З 4
{6}
15 км 9/9 600 м
[Cu Sc]
+17.3 +13.0 76 +17 +18 1012.9 991.7
11 20.06 З 4
{6}
8000 м слаб. дождь 10/9 600 м
[Cu Sc]
+16.6 +14.1 85 +16 +17 1013.4 992.1
12 20.06 З 4
{7}
6000 м слаб. дождь 10/9 270 м
[Cu Sc]
+16.3 +14.1 87 +16 +16 1013.8 992.5 0.3
13 20.06 ЮЗ 4
{6}
16 км в посл. час дождь 9/3 600 м
[Cu Sc Ac trans]
+18.2 +13.5 74 +18 +22 1013.5 992.3
14 20.06 ЮЗ 4
{7}
25 км 9/4 720 м
[Cu Sc Ac trans]
+18.5 +13.1 71 +19 +22 1013.4 992.3
15 20.06 З 5
{7}
25 км {дождь} 9/4 720 м
[Cu Sc Ac trans Ci sp]
+20.3 +12.3 60 +22 +24 комфорт 1013.4 992.4
16 20.06 З 5
{8}
25 км 8/3 900 м
[Cu Sc Ac trans Ci sp]
+19.3 +11.8 62 +20 +22 1013.5 992.4
17 20.06 З 6
{9}
30 км 6/6 900 м
[Cu Sc Ac trans Ci sp]
+20.1 +10.7 55 +21 +22 комфорт 1013.8 992.7
18 20.06 З 4
{9}
30 км {дождь} 6/6 960 м
[Cu Sc Ci fib]
+19.2 +11.7 62 +20 +21 1014.5 993.4 +20.8 0.3
19 20.06 З 4
{8}
30 км 6/6 960 м
[Cu Sc Ci fib]
+18.0 +10.8 63 +18 +18 1015.2 994.0
20 20.06 З 3
{6}
30 км 6/6 960 м
[Cu Sc Ci fib]
+16.1 +10.0 67 +16 +16 1016.0 994.7
21 20.06 З 3
{8}
30 км 4/4 960 м
[Cu Sc]
+14.2 +9.5 73 +13 +13 1016.7 995.2
22 20.06 З 3
{5}
30 км 3/3 1500 м
[Sc]
+13.7 +8.7 72 +13 +13 1017.2 995.6
23 20.06 ЮЗ 2
{4}
30 км 3/3 1500 м
[Sc Ci fib]
+12.9 +8.9 77 +12 +12 1017.7 996.0
00 21.06 ЮЗ 2
{8}
30 км 1/0
[Ci fib]
+11.4 +8.8 84 +10 +10 1018.0 996.2
01 21.06 ЮЗ 3
{5}
30 км 1/0
[Ci fib]
+11.5 +8.4 81 +10 +10 1018.3 996.5
02 21.06 ЮЗ 3
{6}
30 км 1/0
[Ci fib]
+12.0 +8.5 79 +10 +10 1018.3 996.6
03 21.06 ЮЗ 4
{6}
30 км 4/0
[Ci fib]
+11.3 +8.8 85 +9 +9 1018.4 996.7
04 21.06 ЮЗ 4
{6}
30 км 4/0
[Ci sp]
+10.9 +8.5 85 +8 +9 1018.9 997.1
05 21.06 ЮЗ 4
{6}
30 км 1/0
[Ci fib]
+11.3 +8.7 84 +9 +10 1019.2 997.4
06 21.06 ЮЗ 4
{6}
30 км 1/0
[Ci fib]
+12.6 +9.3 80 +11 +13 1019.5 997.8 +10.4
07 21.06 ЮЗ 3
{6}
30 км 1/1 600 м
[Cu hum]
+14.0 +9.2 73 +13 +17 1019.9 998.3
08 21.06 ЮЗ 4
{6}
30 км 1/1 660 м
[Cu med, cong]
+15.1 +9.0 67 +14 +20 1019.9 998.4
09 21.06 З 5
{8}
30 км 4/4 750 м
[Cu med, cong]
+15.8 +9.0 64 +15 +19 1020.0 998.6
10 21.06 З 5
{8}
30 км 4/4 960 м
[Cu med, cong]
+17.3 +8.7 57 +17 +22 1020.2 998.8
11 21.06 З 5
{8}
30 км 4/4 1080 м
[Cu med, cong]
+18.1 +9.8 58 +18 +23 1020.3 999.0
12 21.06 З 4
{8}
30 км 4/4 1140 м
[Cu med, cong]
+18.7 +8.6 52 +19 +26 1020.2 998.9
13 21.06 З 3
{8}
30 км 5/5 1140 м
[Cu Sc]
+17.9 +9.4 58 +18 +25 1020.3 998.9
14 21.06 З 3
{7}
30 км 5/5 1200 м
[Cu Sc]
+18.9 +8.5 51 +20 +25 1020.2 998.9
15 21.06 СЗ 2
{8}
30 км 4/4 1200 м
[Cu Sc]
+18.4 +9.6 56 +19 +25 1020.2 998.9
16 21.06 СЗ 3
{6}
30 км 4/4 1200 м
[Cu Sc]
+18.3 +10.3 60 +19 +22 1020.1 998.9
17 21.06 СЗ 3
{6}
30 км 4/4 1200 м
[Cu Sc Ci fib]
+18.6 +7.8 49 +19 +21 1020.3 999.0
18 21.06 СЗ 3
{8}
30 км 3/3 1200 м
[Cu Sc]
+18.4 +8.9 54 +19 +20 1020.5 999.2 +19.9
19 21.06 С 2
{4}
30 км 1/1 1200 м
[Cu hum]
+16.9 +10.0 64 +17 +17 1020.7 999.3
20 21.06 С 1
{3}
30 км 3/3 1500 м
[Sc]
+16.1 +9.4 64 +17 +17 1021.2 999.8
21 21.06 С 3
{5}
30 км 5/5 1500 м
[Sc]
+14.7 +9.5 71 +14 +14 1022.0 1000.4
22 21.06 С 2
{5}
30 км 3/3 1500 м
[Sc Ci fib]
+12.9 +8.9 77 +12 +12 1022.6 1000.9
23 21.06 С 2
{3}
30 км 3/3 1500 м
[Sc Ci fib]
+12.1 +8.8 80 +11 +11 1022.8 1001.0
00 22.06 С 2
{5}
30 км 1/0
[Ci fib]
+11.6 +8.2 80 +11 +11 1023.0 1001.1
01 22.06 СВ 2
{3}
30 км 1/0
[Ci fib]
+11.1 +8.4 83 +10 +10 1022.7 1000.9
02 22.06 СВ 1
{2}
30 км 1/0
[Ci fib]
+10.8 +8.4 85 +10 +10 1022.5 1000.6
03 22.06 СВ 2
{8}
30 км 1/0
[Ci fib]
+10.6 +8.3 86 +9 +9 1022.2 1000.3
04 22.06 СВ 2
{5}
30 км 1/0
[Ci fib]
+10.1 +8.2 88 +9 +9 1022.1 1000.2
05 22.06 С 2
{7}
30 км 1/0
[Ci fib]
+11.3 +9.3 87 +10 +11 1022.1 1000.3
06 22.06 СВ 2
{8}
18 км 3/0
[Ci sp]
+13.3 +10.4 83 +13 +15 1021.7 1000.1 +9.9
07 22.06 СВ 3
{5}
18 км 5/0
[Ci sp]
+14.8 +11.2 79 +14 +18 1021.5 1000.0
08 22.06 СВ 3
{5}
12 км 4/0
[Ac trans Ci sp]
+17.0 +12.2 73 +17 +24 1021.3 999.9
09 22.06 С 4
{6}
11 км 5/0
[Ac trans Ci sp]
+18.1 +12.1 68 +18 +25 1021.0 999.7
10 22.06 СВ 5
{8}
12 км 5/1 630 м
[Cu hum Ac trans Ci sp]
+19.6 +11.8 61 +21 +27 комфорт 1020.7 999.5
11 22.06 СВ 6
{9}
13 км 5/1 750 м
[Cu hum Ac trans Ci sp]
+20.5 +11.9 58 +22 +27 комфорт 1020.3 999.2
12 22.06 СВ 5
{9}
14 км 5/3 1000 м
[Cu hum Ac trans Ci sp]
+21.6 +11.4 52 +24 +29 комфорт 1019.9 998.9
13 22.06 СВ 4
{9}
14 км 6/4 1000 м
[Cu hum Ac trans Ci sp]
+22.0 +12.0 53 +24 +30 комфорт 1019.5 998.5
14 22.06 СВ 4
{8}
14 км 4/3 1050 м
[Cu hum Ac trans Ci sp]
+22.5 +12.0 51 +25 +31 комфорт 1019.0 998.1
15 22.06 С 5
{9}
16 км 3/1 1140 м
[Cu hum Ci sp]
+22.5 +11.6 50 +25 +29 комфорт 1018.7 997.8
16 22.06 СВ 4
{7}
18 км 3/1 1320 м
[Cu hum Ac trans Ci sp]
+22.9 +11.9 50 +25 +29 комфорт 1018.2 997.3
17 22.06 С 5
{7}
18 км 1/1 1350 м
[Cu hum Ci sp]
+22.4 +11.9 51 +25 +26 комфорт 1018.2 997.2
18 22.06 СВ 4
{9}
30 км 3/0
[Ac trans Ci fib]
+21.9 +12.1 54 +24 +25 комфорт 1018.1 997.1 +23.0
19 22.06 С 3
{6}
30 км 1/0
[Ci fib]
+20.7 +13.2 62 +23 +24 комфорт 1018.1 997.1
20 22.06 С 2
{4}
30 км 1/0
[Ci fib]
+19.1 +13.2 69 +21 +21 комфорт 1018.4 997.2
21 22.06 С 1
{6}
30 км 1/0
[Ci fib]
+17.7 +12.6 72 +19 +19 1018.9 997.6
22 22.06 С 2
{2}
30 км 1/0
[Ci fib]
+17.0 +12.5 75 +17 +17 1019.0 997.7
23 22.06 С 2
{2}
30 км 1/0
[Ci fib]
+15.8 +12.4 80 +16 +16 1019.0 997.6
00 23.06 В 2
{6}
30 км 1/0
[Ci fib]
+16.5 +12.3 76 +17 +17 1018.8 997.4
01 23.06 В 2
{3}
25 км 1/0
[Ci fib]
+16.9 +12.5 75 +17 +17 1018.6 997.2
02 23.06 штиль 0
{9}
25 км 1/0
[Ci fib]
+15.2 +12.3 83 +15 +15 1018.7 997.2
03 23.06 С 1
{9}
25 км 1/0
[Ci fib]
+14.2 +12.3 88 +15 +15 1018.8 997.3
04 23.06 ЮВ 2
{9}
25 км 1/0
[Ci fib]
+15.8 +12.8 82 +16 +16 1018.5 997.1
05 23.06 ЮВ 3
{9}
25 км 1/0
[Ci fib]
+15.5 +13.2 86 +15 +16 1018.7 997.2
06 23.06 ЮВ 3
{9}
9000 м 1/0
[Ci sp]
+17.4 +13.6 78 +17 +20 1018.7 997.4 +13.6
07 23.06 В 2
{9}
11 км 1/0
[Ci sp]
+20.8 +15.0 69 +24 +30 комфорт 1018.5 997.5
08 23.06 ЮВ 3
{4}
12 км 1/0
[Ci sp]
+22.7 +14.8 61 +26 +34 жарко 1018.3 997.4
09 23.06 В 4
{9}
15 км 3/0
[Ci sp]
+24.2 +14.4 54 +27 +35 жарко 1017.5 996.7
10 23.06 нст 2
{8}
18 км 3/1 1020 м
[Cu hum Ci sp]
+25.8 +15.2 52 +29 +42 душно 1017.4 996.7
11 23.06 В 4
{10}
20 км 6/3 1260 м
[Cu hum Ci sp]
+26.7 +14.4 47 +29 +37 жарко 1016.8 996.2
12 23.06 В 4
{10}
22 км 8/4 1350 м
[Cu hum Ac trans Ci sp]
+27.1 +14.8 47 +30 +34 душно 1016.5 996.0
13 23.06 ЮВ 5
{9}
25 км 6/4 1500 м
[Cu hum Ac trans Ci sp]
+27.9 +13.9 42 +30 +34 жарко 1016.3 995.8
14 23.06 ЮВ 5
{8}
23 км 6/4 1500 м
[Cu hum Ac trans Ci sp]
+27.8 +14.3 44 +30 +34 жарко 1016.2 995.6
15 23.06 ЮВ 4
{14}
23 км 9/3 1500 м
[Cu hum Ac trans Ci sp]
+27.9 +14.7 44 +30 +33 жарко 1016.1 995.6
16 23.06 штиль 0 50 км ?/? 996.0
17 23.06 штиль 0 50 км ?/? 996.1
18 23.06 ЮВ 3
{14}
23 км 9/1 1500 м
[Cu Sc Ac trans Ci sp]
+26.4 +14.9 49 +29 +30 жарко 1016.1 995.5 +28.4
19 23.06 нст 2
{8}
40 км ясно +25.8 +15.2 52 +29 +29 душно 1016.2 995.5
20 23.06 В 2
{9}
23 км 8/0 2000 м
[Ac trans Ci sp]
+24.7 +14.9 54 +27 +27 жарко 1016.9 996.2
21 23.06 ЮВ 2
{9}
30 км 9/0
[Ci sp]
+24.0 +15.0 57 +27 +27 жарко 1017.2 996.4
22 23.06 В 2
{7}
30 км 9/0
[Ci sp]
+23.4 +15.3 60 +28 +28 душно 1017.4 996.5
00 24.06 ЮВ 2
{9}
30 км 9/0
[Ci sp]
+21.3 +15.3 69 +24 +24 комфорт 1017.9 996.9
01 24.06 ЮВ 2
{7}
30 км 9/0
[Ci sp]
+20.8 +15.4 71 +25 +25 комфорт 1018.0 997.0
02 24.06 ЮВ 2
{7}
30 км 9/0
[Ci sp]
+20.2 +15.2 73 +23 +23 комфорт 1017.9 996.8
03 24.06 ЮВ 3
{7}
30 км 8/0
[Ci sp]
+19.8 +15.3 75 +22 +22 комфорт 1017.8 996.7
04 24.06 ЮВ 3
{8}
30 км 8/0
[Ci sp]
+18.9 +15.4 80 +20 +20 1017.8 996.6
05 24.06 ЮВ 3
{7}
30 км 8/0
[Ac trans Ci fib]
+20.0 +15.8 77 +23 +23 комфорт 1017.8 996.7
06 24.06 ЮВ 4
{9}
30 км 8/0
[Ac trans Ci fib]
+21.6 +16.0 70 +25 +27 комфорт 1017.8 996.8 +18.8
07 24.06 ЮВ 3
{6}
30 км 8/0
[Ac trans Ci fib]
+23.0 +16.1 65 +27 +31 душно 1017.8 996.9
08 24.06 ЮВ 4
{7}
30 км 5/0
[Ac trans Ci fib]
+25.2 +16.3 58 +29 +34 душно 1017.7 997.0
09 24.06 ЮВ 4
{12}
30 км 6/0
[Ac trans Ci fib]
+26.6 +16.1 53 +30 +37 душно 1017.4 996.8
10 24.06 ЮВ 4
{9}
30 км в посл. час снег 6/0
[Ac trans Ci fib]
+27.3 +15.8 49 +30 +39 душно 1017.4 996.9
11 24.06 ЮВ 2
{11}
30 км 6/0
[Ac trans Ci fib]
+28.6 +16.4 48 +32 +45 душно 1017.2 996.8
12 24.06 Ю 3
{12}
30 км 6/0
[Ac trans Ci fib]
+29.1 +15.7 44 +32 +43 душно 1017.1 996.6
13 24.06 Ю 3
{6}
30 км 6/0
[Ac trans Ci fib]
+30.0 +15.3 41 +33 +43 душно 1017.0 996.6
14 24.06 Ю 3
{6}
30 км 6/0
[Ac trans Ci fib]
+30.5 996.4
15 24.06 СЗ 1
{6}
30 км 6/3 1500 м
[Cu hum Ac trans Ci fib]
+30.2 +16.8 45 +34 +40 очень
душно
1016.7 996.4
16 24.06 СЗ 3
{4}
30 км 6/3 1500 м
[Cu hum Ac trans Ci fib]
+30.1 +17.1 46 +34 +37 очень
душно
1016.7 996.4
17 24.06 С 3
{4}
30 км 6/3 1500 м
[Cu hum Ac trans Ci fib]
+29.2 +17.0 48 +33 +35 очень
душно
1016.5 996.1
18 24.06 С 2
{6}
30 км 8/0
[Ci sp]
+27.7 +17.0 52 +32 +33 очень
душно
1016.4 995.9 +30.7
19 24.06 С 2
{3}
30 км 6/0
[Ci sp]
+26.7 +17.9 59 +31 +31 душно 1016.5 995.9
20 24.06 С 2
{3}
30 км 5/0
[Ci sp]
+25.8 +17.5 60 +30 +30 душно 1016.7 996.1
21 24.06 СВ 1
{3}
30 км 4/0
[Ci sp]
+25.8 +16.6 57 +29 +29 душно 1017.0 996.3
22 24.06 В 1
{9}
30 км 5/0
[Ci sp]
+25.9 +16.5 56 +29 +29 душно 1016.9 996.2
23 24.06 ЮВ 2
{8}
30 км 5/0
[Ci sp]
+25.0 +16.3 58 +28 +28 жарко 1016.8 996.1
00 25.06 ЮВ 3
{9}
30 км 5/0
[Ci sp]
+24.2 +16.3 61 +28 +28 душно 1016.8 996.0
01 25.06 ЮВ 3
{12}
30 км 5/0
[Ci sp]
+23.6 +16.0 62 +27 +27 жарко 1016.5 995.7
02 25.06 ЮВ 3
{12}
30 км 6/0
[Ci sp]
+23.5 +16.2 64 +27 +27 душно 1016.1 995.3
03 25.06 нст 3
{12}
30 км 6/0
[Ci sp]
+23.4 +16.1 64 +28 +28 душно 1015.7 994.9
04 25.06 ЮВ 3
{10}
30 км 6/0
[Ci sp]
+23.0 +16.1 65 +27 +28 душно 1015.5 994.7
05 25.06 ЮВ 3
{7}
30 км 6/0 2000 м
[Ac trans Ci sp]
+23.6 +16.3 64 +27 +28 жарко 1015.8 995.0
06 25.06 ЮВ 4
{12}
40 км 8/0
[Ac trans Ci sp]
+23.9 +16.3 62 +27 +29 жарко 1015.7 994.9 +22.9
07 25.06 ЮВ 3
{12}
40 км 4/0
[Ac trans Ci sp]
+24.9 +17.0 62 +29 +33 душно 1015.9 995.2
08 25.06 Ю 5
{8}
40 км 3/0
[Ac trans Ci sp]
+26.9 +17.4 56 +31 +35 душно 1015.8 995.3
09 25.06 Ю 5
{12}
40 км 1/0
[Ac trans Ci sp]
+28.5 +17.3 51 +33 +39 очень
душно
1015.6 995.2
10 25.06 Ю 5
{10}
40 км 6/0
[Ac trans Ci sp]
+30.1 +17.5 47 +34 +41 очень
душно
1015.7 995.4
11 25.06 Ю 4
{9}
40 км 6/0
[Ac trans Ci sp]
+31.7 +18.0 44 +36 +46 очень
душно
1015.7 995.5
12 25.06 Ю 6
{12}
40 км 8/0
[Ci sp]
+32.3 +16.9 40 +36 +42 очень
душно
1015.8 995.6
13 25.06 Ю 6
{10}
40 км 8/1 1500 м
[Cu hum Ci sp]
+32.6 +18.3 43 +37 +42 очень
душно
1016.1 996.0
14 25.06 ЮЗ 6
{10}
40 км 8/1 1500 м
[Cu hum Ci sp]
+32.2 +18.3 44 +37 +41 очень
душно
1016.4 996.2
15 25.06 ЮЗ 4
{10}
40 км 8/3 1500 м
[Cu hum Ci sp]
+31.9 +18.5 45 +37 +41 очень
душно
1016.5 996.3
16 25.06 ЮЗ 4
{8}
40 км 8/1 1500 м
[Cu hum Ci sp]
+32.2 +16.5 39 +35 +39 очень
душно
1016.8 996.5
17 25.06 З 4
{8}
40 км 8/1 1500 м
[Sc diur, vesp Ci sp]
+31.5 +18.1 45 +36 +38 очень
душно
1017.2 996.9
18 25.06 З 3
{10}
40 км 6/1 1500 м
[Sc diur, vesp Ci fib]
+30.2 +19.4 52 +36 +37 очень
душно
1017.7 997.4 +32.8
19 25.06 З 3
{4}
40 км 5/0
[Ci fib]
+28.4 +19.0 57 +34 +34 очень
душно
1018.4 997.9
20 25.06 З 3
{4}
40 км 4/0
[Ci fib]
+26.3 +18.9 64 +31 +31 душно 1018.8 998.2
21 25.06 З 2
{4}
40 км 4/0
[Ci fib]
+25.6 +18.6 65 +30 +30 душно 1019.7 999.0
22 25.06 СЗ 3
{5}
12 км 4/0
[Ci fib]
+24.3 +20.6 80 +30 +30 очень
душно
1020.7 999.9
23 25.06 С 2
{5}
9000 м 3/0
[Ci fib]
+22.8 +19.7 83 +29 +29 очень
душно
1021.2 1000.3
00 26.06 СЗ 2
{5}
7000 м 3/0
[Ci fib]
+21.7 +19.1 85 +27 +27 душно 1021.6 1000.6
01 26.06 СЗ 1
{3}
6000 м 1/0
[Ci fib]
+21.2 +18.8 86 +26 +26 душно 1021.8 1000.7
02 26.06 штиль 0
{1}
6000 м 1/0
[Ci fib]
+21.0 +18.9 88 +25 +25 комфорт 1021.9 1000.8
03 26.06 СЗ 1
{3}
4300 м дымка 1/0
[Ci fib]
+20.7 +18.8 89 +26 +26 душно 1022.3 1001.2
04 26.06 СЗ 2
{4}
2500 м дымка ясно +19.4 +18.3 93 +22 +22 комфорт 1022.8 1001.6
05 26.06 СЗ 3
{4}
2200 м дымка ясно +18.6 +17.4 93 +20 +21 1023.5 1002.3
06 26.06 СЗ 2
{4}
2200 м дымка ясно +18.6 +17.4 93 +20 +23 1024.0 1002.8 +18.3
07 26.06 СЗ 2
{4}
2200 м дымка 4/4 90 м
[St]
+19.6 +17.6 88 +23 +26 комфорт 1024.3 1003.1
08 26.06 С 2
{4}
2400 м дымка 4/3 150 м
[St Ci fib]
+20.7 +18.2 86 +25 +32 комфорт 1024.9 1003.8
09 26.06 С 2
{4}
2600 м дымка 1/0
[Ci fib]
+21.4 +18.2 82 +26 +38 душно 1024.8 1003.7
10 26.06 С 2
{4}
4200 м мгла 1/0
[Ci fib]
+22.7 +18.2 76 +28 +43 душно 1024.9 1003.9
11 26.06 С 3
{5}
4600 м мгла ясно +24.2 +18.3 70 +29 +43 душно 1025.0 1004.1
12 26.06 С 3
{6}
4800 м мгла ясно +25.1 +18.8 68 +30 +44 душно 1024.8 1003.9
13 26.06 СЗ 4
{7}
8000 м ясно +26.3 +18.9 64 +31 +42 душно 1024.7 1004.0
14 26.06 С 5
{7}
10 км ясно +26.8 +18.7 61 +32 +39 очень
душно
1024.4 1003.7
15 26.06 С 5
{7}
10 км ясно +27.2 +19.1 61 +32 +38 очень
душно
1023.7 1003.0
16 26.06 С 5
{7}
10 км ясно +27.8 +18.0 55 +32 +36 душно 1023.6 1002.9
17 26.06 С 5
{8}
15 км ясно +27.1 +19.0 61 +32 +34 очень
душно
1023.4 1002.8
18 26.06 СВ 5
{8}
15 км ясно +25.6 +18.7 66 +31 +31 очень
душно
1023.8 1003.0 +27.9
19 26.06 С 4
{7}
16 км ясно +24.0 +18.8 73 +29 +29 душно 1024.2 1003.3
20 26.06 С 4
{7}
15 км ясно +22.3 +18.5 79 +28 +28 душно 1024.8 1003.8
21 26.06 С 4
{7}
18 км ясно +21.3 +17.8 80 +25 +25 комфорт 1025.4 1004.3
22 26.06 С 4
{7}
22 км ясно +20.4 +16.9 80 +24 +24 комфорт 1025.8 1004.6
23 26.06 С 5
{8}
25 км ясно +19.2 +15.4 79 +20 +20 1026.3 1005.0

 

Местоположение метеостанции Бьерсет (Бельгия): широта 50.65 долгота 5.45 высота над уровнем моря 178 м.

В архиве по умолчанию представлена погода в Бьерсете за последнюю неделю. Архивные данные за месяц целиком и за предыдущие месяцы, начиная с января 2011 года, Вы можете получить, выбрав интересующий диапазон дат из раскрывающегося списка и нажав кнопку "Ввод!".


*Определитесь, кто Вы:
робот инопланетянин человек

Внимание! Время в таблицах - всемирное. Для получения местного времени необходимо прибавить поправку, которая равна 1 ч.

Смотрите также архив погоды в соседних городах и на ближайших метеорологических станциях:

Погода в Дипенбеке (Бельгия) (30 км)
Погода в Маастрихте (Нидерланды) (38 км)
Погода в Спа (Бельгия) (38 км)
Погода в Ахен-Орсбахе (Германия) (42 км)
Погода на Монт-Риги (Бельгия) (46 км)
Погода в Шаффене (Бельгия) (47 км)
Погода в Бовешене (Бельгия) (49 км)
Погода в Гумане (Бельгия) (52 км)
Погода в Эрнаже (Бельгия) (54 км)
Погода в Гайленкирхене (Германия) (55 км)

Пояснения к столбцам:

Ветер - указаны скорость ветра в м/с - средняя за 10 мин, порывы в срок и между сроками (в фигурных скобках) и направление, откуда дует ветер: С - северный, СВ - северо-восточный, В - восточный, ЮВ - юго-восточный, Ю - южный, ЮЗ - юго-западный, З - западный, СЗ - северо-западный.
Видимость - горизонтальная дальность видимости в метрах или километрах. При видимости от 1 до 10 км при отсутствии осадков обычно наблюдается дымка, при ухудшении видимости до 1 км и менее - туман. В сухую погоду видимость может ухудшаться дымом, пылью или мглою.
Явления - указаны атмосферные явления, наблюдавшиеся в срок или в последний час перед сроком; фигурными скобками обозначены явления, наблюдавшиеся между сроками (за 1-3 часа до срока); квадратными скобками обозначены град или гололедные отложения с указанием их диаметра в мм.
Облачность - указаны через наклонную черту общая и нижняя облачность в баллах и высота нижней границы облаков в метрах; квадратными скобками обозначены формы облаков: Ci - перистые, Cs - перисто-слоистые, Cc - перисто-кучевые, Ac - высококучевые, As - высокослоистые, Sc - слоисто-кучевые, Ns - слоисто-дождевые, Cu - кучевые, Cb - кучево-дождевые. Подробнее классификацию облаков см. в Атласе облаков (PDF).
T - Температура воздуха - температура, измеренная на высоте 2 м над землей.
Td - Температура точки росы - температура, при понижении до которой содержащийся в воздухе водяной пар достигнет насыщения.
f - Относительная влажность воздуха - влажноcть воздуха, измеренная на высоте 2 м над землей.
Te - Эффективная температура - температура, которую ощущает одетый по сезону человек в тени. Характеристика душности погоды. При расчете учитывается влияние влажности воздуха и скорости ветра на теплоощущения человека.
Tes - Эффективная температура на солнце - температура, которую ощущает человек, с поправкой на солнечный нагрев. Характеристика знойности погоды. Зависит от высоты солнца над горизонтом, облачности и скорости ветра. Ночью, в пасмурную погоду, а также при ветре 12 м/с и более поправка равна нулю.
P - Атмосферное давление - приведенное к уровню моря атмосферное давление.
Po - Атмосферное давление - измеренное на уровне метеостанции атмосферное давление.
Tmin - Минимальная температура - минимум температуры воздуха на высоте 2 м над землей.
Tmax - Максимальная температура - максимум температуры воздуха на высоте 2 м над землей.
R - Количество осадков - Количество выпавших осадков за период времени, мм. При наведении курсора мыши на число - период времени, за который выпало указанное количество осадков.
R24 - Количество осадков - Количество выпавших осадков за 24 часа, мм.
S - Снежный покров - Высота снежного покрова, см. При наведении курсора мыши на число - состояние снежного покрова и степень покрытия местности в баллах.